#timestamp,LO_Frequency,Hit,StdDev 
1544965215.3,286047000.2,N
1544965235.2,286047000.4,N
1544965255.0,286047000.9,N
1544965255.9,286047000.9,N
1544965275.7,286047000.3,N
1544965295.6,286047002.2,N
1544965315.4,286046999.7,N
1544965335.3,286047002.5,N
1544965355.1,286047000.9,N
1544965356.0,286047000.9,N
1544965375.8,286047000.4,N
1544965395.7,286047000.8,N
1544965415.5,286047000.7,N
1544965435.3,286047001.2,N
1544965455.2,286047000.7,N
1544965475.0,286047000.6,N
1544965475.9,286047000.6,N
1544965495.8,286047002.8,Y
1544965515.6,286047001.0,P
1544965535.4,286047000.7,P
1544965555.3,286047002.0,P
1544965575.1,286047000.4,N
1544965595.8,286047000.4,N
1544965615.7,286046998.2,Y
1544965635.5,286046996.6,P
1544965655.4,286046996.5,N
1544965675.2,286046997.0,N
1544965695.0,286046996.7,N
1544965695.9,286046996.7,N
1544965715.8,286046997.1,N
1544965735.6,286046996.9,N
1544965755.4,286046998.5,N
1544965775.3,286046998.6,N
1544965795.1,286047000.8,N
1544965815.9,286046998.7,N
1544965835.7,286046998.6,N
1544965855.5,286047001.2,N
1544965875.4,286046999.5,N
1544965895.2,286046996.8,N
1544965915.0,286046999.2,N
1544965915.9,286046999.2,N
1544965935.8,286046999.1,N
1544965955.6,286046996.6,N
1544965975.5,286046998.3,N
1544965995.3,286046996.5,N
1544966015.1,286046999.6,N
1544966035.9,286046997.1,N
1544966055.7,286046999.3,N
1544966075.5,286046997.9,N
1544966095.4,286046994.9,Y
1544966115.2,286046996.6,P
1544966135.0,286046996.6,P
1544966136.0,286046996.6,P
1544966155.8,286046999.6,N
1544966175.6,286046997.2,N
1544966195.5,286046996.6,Y
1544966215.3,286047000.5,P
1544966235.1,286046999.7,N
1544966255.9,286047002.4,N
1544966275.7,286047002.4,N
1544966295.6,286047002.2,N
1544966315.4,286047002.4,N
1544966335.2,286047001.5,N
1544966355.1,286047001.9,N
1544966356.0,286047001.9,N
1544966375.8,286047001.9,N
1544966395.6,286047001.9,N
1544966415.5,286047004.1,N
1544966435.3,286047002.1,N
1544966455.1,286047002.6,N
1544966475.9,286047000.0,N
1544966495.7,286047004.0,N
1544966515.6,286047004.1,N
1544966535.4,286047001.7,N
1544966555.2,286047004.7,Y
1544966575.1,286047004.3,P
1544966576.0,286047004.3,P
1544966595.8,286047002.1,N
1544966615.6,286047000.3,N
1544966635.5,286046998.1,N
1544966655.3,286046998.2,N
1544966675.2,286046999.9,N
1544966695.9,286046999.9,N
1544966715.7,286047000.3,N
1544966735.6,286046998.4,N
1544966755.4,286046998.7,N
1544966775.2,286046999.1,N
1544966795.1,286047000.3,N
1544966796.0,286047000.3,N
1544966815.8,286047000.8,N
1544966835.7,286047000.8,N
1544966855.5,286046998.6,N
1544966875.3,286046998.4,N
1544966895.2,286047001.2,N
1544966915.9,286047001.2,N
1544966935.7,286047000.7,N
1544966955.6,286047000.3,N
1544966975.4,286047000.9,N
1544966995.2,286046999.8,N
1544967015.1,286047000.5,N
1544967016.0,286047000.5,N
1544967035.8,286046999.1,N
1544967055.7,286046998.8,N
1544967075.5,286046998.4,N
1544967095.3,286046998.7,N
1544967115.2,286046996.6,N
1544967135.0,286046998.7,N
1544967135.9,286046998.7,N
1544967155.7,286046999.3,N
1544967175.6,286047001.1,N
1544967195.4,286046998.3,N
1544967215.3,286047000.4,N
1544967235.1,286047000.6,N
1544967236.0,286047000.6,N
1544967255.8,286046999.7,N
1544967275.7,286046999.7,N
1544967295.5,286046999.9,N
1544967315.3,286046999.9,N
1544967335.2,286047000.3,N
1544967355.0,286047001.9,N
1544967355.9,286047001.9,N
1544967375.8,286047000.4,N
1544967395.6,286047000.0,N
1544967415.4,286047000.8,N
1544967435.3,286047000.7,N
1544967455.1,286047000.5,N
1544967475.8,286047000.4,N
1544967495.7,286047000.2,N
1544967515.5,286047000.0,N
1544967535.4,286047000.3,N
1544967555.2,286046998.7,N
1544967575.0,286046998.9,N
1544967575.9,286046998.9,N
1544967595.8,286046998.4,N
1544967615.6,286046999.0,N
1544967635.4,286046998.9,N
1544967655.3,286046999.1,N
1544967675.1,286046998.6,N
1544967695.9,286046998.2,N
1544967715.7,286046999.0,N
1544967735.5,286046998.4,N
1544967755.4,286046999.4,N
1544967775.2,286046996.7,Y
1544967795.0,286046998.7,P
1544967796.0,286046998.7,N
1544967815.8,286046998.8,N
1544967835.6,286046998.1,Y
1544967855.5,286047000.1,P
1544967875.3,286047001.8,P
1544967895.1,286047000.1,N
1544967915.9,286047002.3,N
1544967935.7,286047000.3,N
1544967955.6,286047000.4,N
1544967975.4,286046998.7,N
1544967995.2,286047000.5,N
1544968015.1,286047002.0,N
1544968016.0,286047002.0,N
1544968035.8,286047002.6,N
1544968055.6,286047001.5,N
1544968075.5,286047004.4,Y
1544968095.3,286047000.1,P
1544968115.2,286046999.9,N
1544968135.9,286046999.9,N
1544968155.7,286047002.4,Y
1544968175.6,286047000.4,P
1544968195.4,286047000.1,N
1544968215.2,286047000.6,P
1544968235.1,286047000.3,N
1544968236.0,286047000.3,N
1544968255.8,286047000.4,N
1544968275.7,286046998.1,Y
1544968295.5,286047001.0,P
1544968315.3,286047000.6,N
1544968335.2,286047000.7,N
1544968355.0,286047000.7,N
1544968355.9,286047000.7,Y
1544968375.7,286046999.9,P
1544968395.6,286047000.6,N
1544968415.4,286046998.1,P
1544968435.3,286046998.8,N
1544968455.1,286047001.1,N
1544968456.0,286047001.1,N
1544968475.8,286046998.8,N
1544968495.7,286046998.1,N
1544968515.5,286046999.3,N
1544968535.3,286047000.5,N
1544968555.2,286047000.9,N
1544968575.0,286047000.9,N
1544968575.9,286047000.9,N
1544968595.8,286047001.0,N
1544968615.6,286046999.4,N
1544968635.4,286046998.4,N
1544968655.3,286047000.6,N
1544968675.1,286046999.8,N
1544968695.8,286047000.9,N
1544968715.7,286047000.2,N
1544968735.5,286047000.5,N
1544968755.4,286047000.4,N
1544968775.2,286047000.6,N
1544968795.0,286047001.2,N
1544968795.9,286047001.2,N
